Regional Weather Roundup
Issued by NWS Cleveland, OH

Home | Current Version | Previous Version | Graphics & Text | Print | Product List | Glossary On
Versions: 1 2 3 4 5 6 7 8 9 10 11 12 13 14 15 16 17 18 19 20 21 22 23 24 25 26 27 28 29 30 31 32 33 34 35 36 37 38 39 40 41 42 43 44 45 46 47 48 49 50
000
ASUS41 KCLE 032200
RWRCLE
OHIO REGIONAL WEATHER ROUNDUP
NATIONAL WEATHER SERVICE WILMINGTON, OH
600 PM EDT FRI JUL 03 2015

NOTE: "FAIR" INDICATES FEW OR NO CLOUDS BELOW 12,000 FEET WITH NO
SIGNIFICANT WEATHER AND/OR OBSTRUCTIONS TO VISIBILITY.

OHZ001>008-015>018-024>027-034-035-043-044-032300-
   NORTHWEST OHIO

CITY           SKY/WX    TMP DP  RH WIND       PRES   REMARKS
DEFIANCE       PTSUNNY   76  57  51 E7        29.92S
FINDLAY        MOSUNNY   75  56  51 NE13      29.90S
TOLEDO EXPRESS MOSUNNY   73  52  47 NE7       29.92F
TOLEDO EXEC    PTSUNNY   72  50  45 NE9       29.93F
LIMA           MOSUNNY   74  59  59 N7        29.90F
$$

OHZ009>014-019>023-028>033-038-089-032300-
   NORTHEAST OHIO

CITY           SKY/WX    TMP DP  RH WIND       PRES   REMARKS
CLE-HOPKINS    PTSUNNY   70  55  59 N14       29.94S
CLE-LAKEFRONT  MOSUNNY   70  57  63 NE17      29.90F
CUY CO. ARPT   PTSUNNY   75  57  53 NE13      29.92S
LORAIN-ELYRIA  MOSUNNY   72  54  53 NE10      29.92F
ASHTABULA      PTSUNNY   70  54  56 VRB7      29.94S
AKRON-CANTON   PTSUNNY   76  57  51 E5        29.91S
WOOSTER        NOT AVBL
MANSFIELD      PTSUNNY   75  58  55 N7        29.90F
YOUNGSTOWN     CLOUDY    75  55  49 SE5       29.91F
$$

OHZ042-051>053-060>062-070>072-077>081-032300-
  SOUTHWEST OHIO

CITY           SKY/WX    TMP DP  RH WIND       PRES   REMARKS
CINC-COVINGTON CLOUDY    74  64  71 NE12      29.86S
CINC-LUNKEN    CLOUDY    73  65  75 N7        29.87R
HAMILTON       CLOUDY    72  63  73 NE7       29.89S
DAYTON         NOT AVBL
WRIGHT-PAT AFB CLOUDY    73  62  68 E5        29.89R
DAYTON GENERAL CLOUDY    70  60  70 NE7       29.88F
WILMINGTON     CLOUDY    69  62  78 NE9       29.89R
$$

OHZ036-037-039>041-045>050-054>059-063>069-073>076-082>088-032300-
  CENTRAL AND SOUTHEAST OHIO

CITY           SKY/WX    TMP DP  RH WIND       PRES   REMARKS
COLUMBUS       CLOUDY    73  63  70 NE6       29.87F
OSU AIRPORT    CLOUDY    73  63  70 NE7       29.89S
BOLTON FIELD   CLOUDY    72  64  78 N6        29.89S
RICKENBACK AFB NOT AVBL
NEWARK         LGT RAIN  71  63  75 CALM      29.87F
MARION         MOSUNNY   76  60  57 N10       29.89F
LANCASTER      LGT RAIN  68  64  87 E6        29.89R FOG
ZANESVILLE     LGT RAIN  74  61  63 NE7       29.87F
NEW PHILLY     CLOUDY    76  61  59 E6        29.89F
$$


USA.gov is the U.S. government's official web portal to all federal, state and local government web resources and services.